Regional Weather Roundup
Issued by NWS

Home | Current Version | Previous Version | Text Only | Print | Product List | Glossary Off
Versions: 1 2 3 4 5 6 7 8 9 10 11 12 13 14 15 16 17 18 19 20 21 22 23 24 25 26 27 28 29 30 31 32 33 34 35 36 37 38 39 40 41 42 43 44 45 46 47 48 49 50

000
ASUS45 KBOU 012007
RWRCO

WEATHER ROUNDUP FOR COLORADO
NATIONAL WEATHER SERVICE DENVER/BOULDER CO
200 PM MDT WED APR 01 2015

NOTE: "FAIR" INDICATES FEW OR NO CLOUDS BELOW 12000 FEET WITH NO
SIGNIFICANT WEATHER AND/OR OBSTRUCTIONS TO VISIBILITY.

COZ001>005-013-030-031-012100-
...NORTHWEST COLORADO...

CITY           SKY/WX    TMP DP  RH WIND       PRES   REMARKS
CRAIG          CLOUDY    55  25  31 NW15      29.91F
HAYDEN         MOSUNNY   52  19  28 NW15G28   29.91S
MEEKER         PTSUNNY   58  21  24 W8        29.91F
MOUNT WERNER   NOT AVBL
STEAMBOAT SPGS MOSUNNY   53  25  33 W16G23    29.90F
WALDEN         PTSUNNY   50  23  34 SW20G28   29.89F
$$

COZ006>008-011-012100-
...WEST CENTRAL VALLEYS...

CITY           SKY/WX    TMP DP  RH WIND       PRES   REMARKS
GRAND JUNCTION PTSUNNY   67  16  14 MISG      29.85S
MONTROSE       PTSUNNY   63  23  21 SW25G45   29.87S HAZE
EAGLE          MOSUNNY   61  21  21 W25G31    29.85S
RIFLE          CLOUDY    62  27  26 N8G30     29.85R
DELTA          PTSUNNY   68  28  22 NW13      29.84F
NUCLA          PTSUNNY   59  23  25 SW20G26   29.94R
$$

COZ017>023-064>068-012100-
...SOUTHWEST COLORADO...

CITY           SKY/WX    TMP DP  RH WIND       PRES   REMARKS
DURANGO        MOSUNNY   65  18  16 SW18G30   29.94F
CORTEZ         MOSUNNY   69  17  13 SW16G25   29.93F
PAGOSA SPRINGS MOSUNNY   60  21  22 SW16G29   29.97F
TELLURIDE      PTSUNNY   53  11  19 SW12G29   30.02F
WOLF CREEK PAS CLOUDY    32  21  64 MISG      30.12F
$$

COZ009-010-012-014-032>034-037-058>063-012100-
...CENTRAL COLORADO...

CITY           SKY/WX    TMP DP  RH WIND       PRES   REMARKS
ASPEN          CLOUDY    50  24  36 N16G29    29.90S
BUENA VISTA    PTSUNNY   54  17  23 SW23G35   29.90F
COPPER MTN     CLOUDY    37  19  48 W22G39    30.04F HAZE
BERTHOUD PASS  PTSUNNY   30  23  74 NW15G41   30.06F WCI  19
COTTONWOOD PAS MOSUNNY   48  14  25 W21G33    29.96F
GUNNISON       PTSUNNY   57  19  23 SW23G31   29.92F
KREMMLING      PTSUNNY   55  23  28 NW20      29.86S
LEADVILLE      PTSUNNY   43  19  38 NW16G22   29.96S
SALIDA         MOSUNNY   64  13  13 W16G29    29.94F
SUNLIGHT       CLOUDY    39  25  56 SW3       30.05S
WILKERSON PASS MOSUNNY   48  12  23 SW7G17    30.04F
$$

COZ069>075-012100-
...SAN LUIS VALLEY/SANGRE DE CRISTO MOUNTAINS...

CITY           SKY/WX    TMP DP  RH WIND       PRES   REMARKS
ALAMOSA        MOSUNNY   64  15  15 W13G29    29.91F
LA VETA PASS   MOSUNNY   52  18  25 S12G29    29.99F
SAGUACHE       PTSUNNY   59  19  21 NW16G26   29.91S
$$

COZ035-036-038>040-012100-
...NORTHERN COLORADO FRONT RANGE...

CITY           SKY/WX    TMP DP  RH WIND       PRES   REMARKS
DENVER INTL AP PTSUNNY   66  25  21 NW24      29.74S
DMNS CITY PARK   N/A     68  22  17 W2G24     29.72F
AURORA         PTSUNNY   70  21  15 NE2       29.74F
FRONT RANGE AP PTSUNNY   72  23  16 SW10G29   29.75S
ERIE MUNI ARPT CLOUDY    68  19  15 NW3       29.73F
BOULDER MUN AP CLOUDY    64  23  20 SE3G24    29.73F
CENTENNIAL     CLOUDY    65  21  18 SE7       29.75S
BROOMFIELD     PTSUNNY   68  27  21 W30G36    29.75F
FORT COLLINS   PTSUNNY   68  28  22 NW10      29.73F
LONGMONT       PTSUNNY   71  22  15 SW14G26   29.74S
$$

COZ041-046-047-076>085-087-088-012100-
...PIKES PEAK/PALMER DIVIDE AND SOUTHERN FOOTHILLS...

CITY           SKY/WX    TMP DP  RH WIND       PRES   REMARKS
COLO. SPRINGS  PTSUNNY   67  19  16 CALM      29.78F
A. F. ACADEMY  PTSUNNY   66  14  13 SW16G28   29.77F
ELLICOTT       NOT AVBL
FALCON         PTSUNNY   66  17  14 SW13G21   29.82S
FORT CARSON    PTSUNNY   69  22  16 N9        29.73F
LIMON          SUNNY     72  18  13 VRB5      29.71F
MONUMENT HILL  PTSUNNY   61  21  21 NW20G25   29.81F
TRINIDAD       MOSUNNY   76  18  11 W25G33    29.78F
$$

COZ042>045-048>051-090-091-012100-
...NORTHEAST COLORADO...

CITY           SKY/WX    TMP DP  RH WIND       PRES   REMARKS
GREELEY ARPT   PTSUNNY   72  27  18 NW24G30   29.70R
AKRON          SUNNY     76  24  14 N13G18    29.69F
BURLINGTON     MOSUNNY   80  23  12 N14G22    29.67F
WRAY           MOSUNNY   81  25  12 NW10      29.65F
STERLING       SUNNY     77  28  16 NW15G25   29.66S
HOLYOKE        MOSUNNY   81  27  13 N16G22    29.64F
FORT MORGAN    SUNNY     76  20  12 SW9G21    29.69F
$$

COZ086-089-092>099-012100-
...SOUTHEAST COLORADO...

CITY           SKY/WX    TMP DP  RH WIND       PRES   REMARKS
PUEBLO         MOSUNNY   76  21  12 S5        29.70F
LA JUNTA       SUNNY     82  23  11 SW18      29.67F
LAMAR          MOSUNNY   83  24  11 W13G25    29.64F
SPRINGFIELD      N/A     80  24  12 W12G17    29.70F
$$



USA.gov is the U.S. government's official web portal to all federal, state and local government web resources and services.